ZHUHAI-1 OHS-04 (43443 NORAD) Tracking and Keplerian Element Data

This shows tracking and keplerian element data for the satellite.

Feedback or suggestion? Click here.




ElementValue
Catalog43443
NameZHUHAI-1 OHS-04
Epoch Orbit451
Epoch Day145.86171293
Epoch Year2018
RAAN228.294
Inclination97.3977
Eccentricity0.000575
Argument of Perigee156.4426
Mean Anonmoly305.9378
Mean Motion15.17806671
Decay Rate8.41E-06
L11 43443U 18040E 18145.86171293 .00000841 00000-0 44875-4 0 9992
L22 43443 97.3977 228.2940 0005750 156.4426 305.9378 15.17806671 4511

Live tracking and technical data element details for ZHUHAI-1 OHS-04 (NORAD 43443). ZHUHAI-1 OHS-04 can be tracked NOW for your location showing map with azimuth and elevation plus other details from your city location.

Track the satellite on the map from your city or location and see movement details for azimuth, elevation, latitude, longitude, range, height, and movement on the map or in text.







IsCatalogInMostPopularTable: catalog: 43443, numindb: 24
Update: records affected: 1



GetName: 43443 ZHUHAI-1 OHS-04

Hit Count: updated at: Sun, 15 Jul 2018 22:53:43 GMT